Regional Weather Roundup
Issued by NWS Sterling, VA

Home | Current Version | Previous Version | Graphics & Text | Print | Product List | Glossary On
Versions: 1 2 3 4 5 6 7 8 9 10 11 12 13 14 15 16 17 18 19 20 21 22 23 24 25 26 27
000
ASUS41 KLWX 241310
RWRLWX

REGIONAL WEATHER ROUNDUP
NATIONAL WEATHER SERVICE BALTIMORE MD/WASHINGTON DC
900 AM EDT WED AUG 24 2016

Note: "FAIR" indicates few or no clouds below 12,000 feet
with no significant weather and/or obstructions to visibility.
 TC=TEMPERATURE CELSIUS

 * =Non NWS site. Station does not report precipitation (e.g. rain,
    snow, etc.), thunder, or fog.

DCZ001-MDZ009-015-VAZ040>042-051-053>054-241400-
WASHINGTON METRO

CITY           SKY/WX    TMP DP  RH WIND       PRES   REMARKS
WASHINGTON NAT MOSUNNY   74  61  63 SW9       30.32S
DULLES         MOSUNNY   73  60  63 S9        30.31S
ANDREWS AFB    SUNNY     74  63  68 SW8       30.31S
FT BELVOIR     SUNNY     73  61  66 VRB5      30.31S
QUANTICO       MOSUNNY   74  61  63 W6        30.32S
COLLEGE PARK*  SUNNY     72  63  73 CALM      30.30F
LEESBURG*      SUNNY     72  64  78 CALM      30.32F
MANASSAS*      SUNNY     72  64  78 CALM      30.32R
GAITHERSBURG*  SUNNY     73  59  60 S6        30.35F

$$

MDZ006>007-011-014-241400-
BALTIMORE METRO

CITY           SKY/WX    TMP DP  RH WIND       PRES   REMARKS
BWI AIRPORT    MOSUNNY   73  61  65 SW8       30.31S
MD SCIENCE CTR   N/A     74  60  61 MISG      30.34R
MARTIN STATE   MOSUNNY   73  66  78 CALM      30.33R
ANNAPOLIS      SUNNY     75  62  64 SW6       30.31S
FORT MEADE*    SUNNY     68  63  83 CALM      30.34S

$$

MDZ012-015-019>023-241400-
MARYLAND EASTERN SHORE

CITY           SKY/WX    TMP DP  RH WIND       PRES   REMARKS
OCEAN CITY     SUNNY     75  64  68 NW3       30.31S
SALISBURY      SUNNY     73  63  70 W3        30.32S
BAY BRIDGE AP* SUNNY     75  64  69 SW7       30.32S
CAMBRIDGE*     SUNNY     72  64  78 CALM      30.31S
EASTON*        MOSUNNY   75  72  88 CALM      30.35S

$$

MDZ017>025-241400-
SOUTHERN MARYLAND

CITY           SKY/WX    TMP DP  RH WIND       PRES   REMARKS
PATUXENT RIVER MOSUNNY   74  64  71 SW7       30.32S
ST INIGOES     SUNNY     75  65  70 W5        30.32R
LEONARDTOWN*   SUNNY     72  63  73 W6        30.34R

$$

MDZ003>005-241400-
NORTH CENTRAL MARYLAND

CITY           SKY/WX    TMP DP  RH WIND       PRES   REMARKS
FREDERICK*     SUNNY     70  68  94 CALM      30.33F
HAGERSTOWN APT SUNNY     72  61  68 CALM      30.31S

$$

MDZ501>502-241400-
WESTERN MARYLAND

CITY           SKY/WX    TMP DP  RH WIND       PRES   REMARKS
OAKLAND*       SUNNY     64  59  82 S5        30.36S
CUMBERLAND*    SUNNY     66  63  88 CALM      30.34F

$$

VAZ025>031-241400-
SHENANDOAH VALLEY

CITY           SKY/WX    TMP DP  RH WIND       PRES   REMARKS
WINCHESTER*    SUNNY     72  64  78 S3        30.30S
FRONT ROYAL*   FAIR      68  64  88 S5        30.30S
LURAY*         FAIR      68  68 100 CALM      30.32S
NEW MARKET*    FAIR     N/A N/A N/A SW3       30.32S
STAUNTON*      SUNNY     66  63  89 CALM      30.35F
WAYNESBORO*    FAIR      69  63  83 MISG      30.34F

$$

WVZ021-048>050-054>055-241400-
EASTERN WEST VIRGINIA PANHANDLE

CITY           SKY/WX    TMP DP  RH WIND       PRES   REMARKS
MARTINSBURG    SUNNY     70  64  81 CALM      30.30S
PETERSBURG*    SUNNY     65  62  88 CALM      30.31F

$$

VAZ036>039-050-241400-
CENTRAL FOOTHILLS

CITY           SKY/WX    TMP DP  RH WIND       PRES   REMARKS
CHARLOTTESVILL SUNNY     70  65  84 S3        30.32S
CULPEPER*      MOSUNNY   71  65  81 SW5       30.32S
ORANGE*          N/A     70  64  83 CALM      30.34S
GORDONSVILLE*  CLOUDY    70  63  78 SW6       30.32S
WARRENTON*     FAIR      73  60  62 SW6       30.31S

$$

VAZ055>057-241400-
NORTH AND CENTRAL PIEDMONT

CITY           SKY/WX    TMP DP  RH WIND       PRES   REMARKS
FREDERICKSBRG* MOSUNNY   72  64  74 SW7       30.31S
STAFFORD*      SUNNY     72  62  69 CALM      30.36S

$$

NCZ024-NYZ072-PAZ021-071-VAZ022-071-241400-
OTHER REGIONAL OBSERVATIONS

CITY           SKY/WX    TMP DP  RH WIND       PRES   REMARKS
NEW YORK CITY  SUNNY     73  59  61 VRB3      30.32S
PHILADELPHIA   MOSUNNY   74  62  66 W6        30.31S
PITTSBURGH     PTSUNNY   68  61  78 SE3       30.26R
ROANOKE        MOSUNNY   70  64  81 CALM      30.36S
RICHMOND       PTSUNNY   73  59  61 SW5       30.33S
RALEIGH        PTSUNNY   75  60  59 SE5       30.33R

$$

ANZ530>537-241400-
MARINE OBSERVATIONS

STATION/POSITION TIME  TEMP    WIND        PRES
                       AIR SEA DIR/SP/G
                 (UTC) (F)     (DEG/KT/KT) (MB)
THOMAS PT LIGHT  1300   73 81  250/  8/  9 1027.9R
BALT KEY BRIDGE  1248   72     220/  3/  4 1026.4R
COVE POINT       1248   73     280/  9/ 12 1027.3R
LEWISETTA        1248   73 81  310/  5/  6 1026.4R
SOLOMONS ISLAND  1236   76 83  280/  3/  6   N/A
PINEY POINT      1248          310/  8/  9   N/A

$$





USA.gov is the U.S. government's official web portal to all federal, state and local government web resources and services.